Weather History for Abilene, TX

Change the Weather History Date:

Friday, November 4, 2011

  Actual Average Record
Temperature  
Mean Temperature 47 °F 60 °F  
Max Temperature 64 °F 71 °F 87 °F (1987)
Min Temperature 29 °F 48 °F 22 °F (1950)
Degree Days  
Heating Degree Days 18 7  
Month to date heating degree days 43 26  
Since 1 July heating degree days 119 130  
Cooling Degree Days 0 1  
Month to date cooling degree days 3 6  
Year to date cooling degree days 3490 2395  
Growing Degree Days 0 (Base 50)    
Moisture  
Dew Point 20 °F    
Average Humidity 46    
Maximum Humidity 75    
Minimum Humidity 17    
Precipitation  
Precipitation 0.00 in 0.06 in 0.93 in (1986)
Month to date precipitation 0.00 0.26  
Year to date precipitation 14.72 22.44  
Sea Level Pressure  
Sea Level Pressure 30.16 in    
Wind  
Wind Speed 10 mph (SSE)    
Max Wind Speed 22 mph    
Max Gust Speed 26 mph    
Visibility 10 miles    
Events      
T = Trace of Precipitation, MM = Missing Value Source: NWS Daily Summary

Daily Weather History Graph

Daily Weather History Graph

Search for Another Location

Airport:

Trip Planner

Search our weather history database for the weather conditions in past years. The results will help you decide how hot, cold, wet, or windy it might be!

Date:

Astronomy

Nov. 04, 2011 Rise Set
Actual Time 7:58 AM CDT 6:45 PM CDT
Civil Twilight 7:32 AM CDT 7:11 PM CDT
Nautical Twilight 7:03 AM CDT 7:40 PM CDT
Astronomical Twilight 6:34 AM CDT 8:09 PM CDT
Moon 3:21 PM CDT (11/4) 2:30 AM CDT (11/4)
Length of Visible Light 11h 38m
Length of Day
10h 47m
Waxing Gibbous, 69% of the Moon is Illuminated
Nov 4
Waxing Gibbous
Nov 10
Full
Nov 18
Last Quarter
Nov 25
New
Dec 2
First Quarter

Hourly Weather History & Observations

Time (CDT) Temp. Windchill Dew Point Humidity Pressure Visibility Wind Dir Wind Speed Gust Speed Precip Events Conditions
12:52 AM 32.0 °F 26.4 °F 21.0 °F 64% 30.29 in 10.0 mi South 5.8 mph - N/A   Unknown
1:52 AM 30.0 °F - 21.0 °F 69% 30.28 in 10.0 mi North - - N/A   Unknown
2:52 AM 28.9 °F - 21.0 °F 72% 30.27 in 10.0 mi North - - N/A   Unknown
3:52 AM 28.9 °F - 21.0 °F 72% 30.26 in 10.0 mi North - - N/A   Unknown
4:52 AM 30.9 °F - 21.0 °F 67% 30.25 in - North - - N/A   Unknown
5:52 AM 30.0 °F - 21.0 °F 69% 30.25 in - North - - N/A   Unknown
6:52 AM 30.9 °F 25.2 °F 21.9 °F 69% 30.25 in 10.0 mi SE 5.8 mph - N/A   Unknown
7:52 AM 32.0 °F - 21.0 °F 64% 30.25 in - North - - N/A   Unknown
8:52 AM 36.0 °F 28.0 °F 23.0 °F 59% 30.25 in 10.0 mi South 11.5 mph - N/A   Clear
9:52 AM 46.0 °F - 21.0 °F 37% 30.25 in 10.0 mi North - - N/A   Clear
10:52 AM 50.0 °F - 17.1 °F 27% 30.24 in 10.0 mi SSE 11.5 mph - N/A   Clear
11:52 AM 54.0 °F - 17.1 °F 23% 30.23 in 10.0 mi SSE 8.1 mph 18.4 mph N/A   Clear
12:52 PM 55.9 °F - 15.1 °F 20% 30.19 in 10.0 mi SE 8.1 mph - N/A   Clear
1:52 PM 59.0 °F - 16.0 °F 19% 30.15 in 10.0 mi SSE 9.2 mph - N/A   Clear
2:52 PM 62.1 °F - 17.1 °F 18% 30.10 in 10.0 mi South 9.2 mph - N/A   Clear
3:52 PM 63.0 °F - 17.1 °F 17% 30.08 in 10.0 mi SSW 8.1 mph - N/A   Clear
4:52 PM 64.0 °F - 19.0 °F 18% 30.05 in 10.0 mi SSE 10.4 mph - N/A   Clear
5:52 PM 63.0 °F - 18.0 °F 18% 30.04 in 10.0 mi SSE 11.5 mph - N/A   Clear
6:52 PM 57.9 °F - 21.0 °F 24% 30.04 in 10.0 mi SE 9.2 mph - N/A   Clear
7:52 PM 54.0 °F - 21.0 °F 28% 30.05 in 10.0 mi SE 10.4 mph - N/A   Clear
8:52 PM 53.1 °F - 21.9 °F 30% 30.04 in 10.0 mi SE 10.4 mph - N/A   Clear
9:52 PM 53.1 °F - 19.9 °F 27% 30.01 in 10.0 mi SE 11.5 mph - N/A   Clear
10:52 PM 53.1 °F - 19.0 °F 26% 30.01 in 10.0 mi SE 16.1 mph - N/A   Clear
11:52 PM 54.0 °F - 19.0 °F 25% 29.99 in 10.0 mi SSE 20.7 mph 26.5 mph N/A   Clear